Dewpoint
33 34 34 34 34 33 32 32 31 30 29 26 25 25 25 24 23 22 22 21 21 21 22 22 22 22 23 23 22 22 22 21 22 23 23 19 18 18 18 18 17 18 17 16 16 16 16 16 18 20 21 21 20 20 19 19 19 19 19 19 18 18 18 18 18 17 17 17 18
34 34 34 35 34 33 32 31 30 29 28 26 26 25 24 23 22 22 22 21 22 22 22 22 22 22 22 22 23 22 22 20 20 20 19 19 18 18 18 17 17 18 18 16 16 16 16 16 18 20 20 20 20 19 18 18 19 19 18 18 17 18 18 18 18 18 17 17 18
33 33 33 33 32 31 30 29 28 27 26 25 25 25 24 23 22 22 22 22 22 21 21 21 21 21 20 20 22 23 23 22 19 18 17 18 18 18 18 17 17 17 17 16 16 16 16 16 18 20 20 20 19 18 18 19 19 19 18 17 17 18 18 18 18 17 17 18 18
32 31 31 30 29 29 28 27 26 25 25 25 24 23 23 23 22 22 22 21 20 20 20 20 20 20 20 20 20 22 24 25 21 19 17 18 18 18 18 17 17 16 16 15 15 15 15 15 17 19 19 18 18 18 18 19 19 18 17 17 18 18 18 17 17 18 18 18 18
30 29 29 29 28 27 26 25 25 24 24 24 23 23 22 22 22 21 21 20 20 20 20 20 20 20 20 20 19 19 20 23 24 20 17 18 18 18 18 17 17 16 16 16 15 15 15 15 18 19 19 19 19 18 18 18 17 17 17 17 18 17 17 17 18 18 18 18 18
28 27 27 27 26 25 25 24 24 23 23 23 22 22 21 22 21 21 21 21 22 23 24 25 23 22 20 18 18 18 18 18 18 18 17 17 18 18 17 17 16 16 16 16 16 15 15 15 18 19 20 20 20 19 18 18 17 16 16 16 17 17 17 17 18 18 18 18 17
26 25 25 25 25 24 24 23 23 22 22 21 21 21 21 21 21 21 21 22 23 24 24 24 21 20 19 18 18 18 18 17 17 17 17 18 18 18 17 17 16 16 16 16 16 16 16 16 18 19 20 21 20 19 18 17 16 16 16 16 16 17 17 17 17 17 17 16 16
24 24 24 23 23 23 22 22 22 22 21 21 21 20 20 20 20 20 20 20 20 20 20 19 18 17 17 17 18 18 17 17 17 17 17 18 18 17 17 16 17 17 17 16 16 16 16 17 18 18 18 18 19 18 17 16 16 16 16 16 16 17 17 16 16 16 16 16 16
22 22 22 22 22 22 21 21 21 21 21 20 20 20 20 20 19 19 19 19 20 20 20 18 18 18 17 17 17 17 17 17 17 17 17 18 18 17 17 17 17 17 17 17 17 17 17 17 18 18 18 18 18 17 17 16 16 16 16 16 16 17 17 17 16 16 16 16 16
21 21 21 21 21 21 21 21 21 20 20 20 20 20 21 22 20 19 19 20 20 20 18 18 18 17 17 17 17 17 17 17 16 16 17 19 18 17 17 17 17 17 17 17 17 17 17 17 17 17 17 17 16 16 16 16 16 16 16 16 17 17 16 16 16 17 17 17 17
20 20 20 21 21 21 20 20 20 20 20 20 21 21 21 22 20 20 20 20 19 18 18 18 18 17 17 17 18 18 18 17 17 17 17 18 18 17 17 17 17 17 17 17 17 17 17 17 17 16 16 17 16 16 16 16 16 16 16 16 16 16 16 17 17 17 18 18 18
20 20 20 20 20 20 20 20 20 20 20 20 20 20 19 19 20 20 20 18 18 18 19 19 18 18 17 18 18 19 18 17 17 17 18 17 17 17 17 17 17 17 17 17 17 17 17 17 16 16 16 16 16 16 16 16 16 16 16 16 16 16 17 17 18 18 18 18 18
19 19 20 20 20 20 20 19 19 19 18 18 19 19 19 20 21 20 19 18 18 18 19 20 20 19 18 18 18 18 17 17 17 17 18 18 18 18 17 17 18 17 17 17 17 17 17 17 16 16 16 16 16 16 16 16 16 16 16 16 17 17 17 18 18 18 19 19 19
18 18 19 19 19 19 18 18 17 17 18 18 19 20 20 20 21 20 18 17 18 18 19 20 21 20 20 18 18 18 18 17 17 17 18 19 18 18 18 17 17 17 17 17 17 17 17 16 16 16 16 16 16 16 16 16 16 16 17 17 17 17 18 18 19 19 19 19 20
18 18 18 18 18 17 17 16 17 17 18 19 20 20 21 21 21 20 18 17 17 18 18 18 19 20 20 20 19 18 18 17 18 18 18 18 18 18 18 17 18 18 17 17 17 17 16 16 16 16 16 16 16 16 16 16 16 17 17 17 18 18 18 19 19 20 20 20 20
17 17 17 16 16 16 16 16 17 18 19 19 20 20 20 21 21 20 19 17 18 17 17 17 17 18 19 21 20 19 18 18 18 18 18 18 18 18 18 17 18 18 17 17 17 16 16 16 16 16 16 16 16 16 16 16 17 17 18 18 18 19 19 20 20 20 21 21 21
16 16 16 16 16 16 16 16 17 18 19 19 20 20 20 21 22 22 21 19 18 17 17 17 17 17 18 20 20 20 20 18 18 18 18 18 18 18 18 17 18 18 17 17 16 16 16 16 16 15 15 16 16 16 16 17 18 18 19 19 19 20 20 21 21 21 21 21 22
16 16 16 16 16 16 16 17 18 18 18 19 19 19 20 20 20 21 21 20 18 17 17 17 17 17 17 17 18 20 21 19 19 19 18 18 18 18 18 17 18 18 17 17 16 16 16 15 15 15 15 16 16 17 18 18 19 19 20 20 20 20 20 21 21 21 21 21 22
16 16 16 16 16 17 18 18 18 18 18 18 17 17 17 17 18 19 19 20 19 18 17 17 17 17 17 17 18 20 21 20 19 19 18 18 18 18 18 18 18 17 17 16 16 16 15 15 15 15 16 16 17 18 19 20 20 20 20 20 21 21 21 21 21 21 21 21 22
16 16 16 17 17 18 18 19 18 17 17 17 16 16 16 16 17 18 18 19 19 18 17 17 17 18 18 18 18 19 20 21 19 19 18 18 18 18 18 18 17 17 16 16 15 15 14 15 15 16 17 18 19 20 20 21 21 21 21 21 21 21 21 22 22 21 21 21 21
16 17 17 17 18 18 18 17 17 17 16 16 16 16 16 16 17 18 18 19 18 17 17 17 18 18 18 19 19 19 20 21 20 19 18 18 18 18 18 18 17 16 16 15 15 14 15 15 16 17 19 20 21 22 22 22 22 22 22 22 22 22 21 21 21 21 21 21 21
17 17 17 17 17 17 17 17 17 16 16 16 16 16 16 16 17 17 18 18 18 18 17 18 18 18 19 19 20 20 20 20 19 19 18 18 17 17 18 18 17 16 15 14 14 15 16 17 19 20 21 22 23 23 24 24 23 23 22 22 22 21 21 21 21 21 21 21 21
17 18 18 18 19 19 19 17 17 16 16 16 16 16 16 16 16 17 17 18 19 18 17 18 18 19 19 20 20 20 19 19 18 18 18 17 17 17 17 16 16 16 15 14 15 17 19 20 22 23 24 24 24 24 24 24 24 23 22 22 21 21 21 21 21 21 21 21 21
18 18 18 19 18 18 17 17 16 16 16 16 16 16 16 16 16 16 16 17 17 17 17 18 19 20 20 20 20 20 19 18 18 17 17 17 16 16 16 16 16 15 15 14 18 22 24 25 25 25 25 25 25 24 24 24 23 23 22 22 22 21 21 21 21 21 21 21 20
19 19 19 18 17 17 16 16 16 16 16 16 16 16 16 16 16 16 17 17 17 17 18 18 20 21 22 21 20 20 19 18 18 17 17 16 16 16 16 16 16 15 15 18 24 27 28 28 28 27 26 25 25 24 24 24 24 23 23 22 22 22 21 21 20 20 20 20 20
19 18 18 17 17 16 16 16 16 16 16 16 16 16 16 16 17 17 17 18 18 18 18 19 20 23 24 20 19 19 18 18 18 17 16 16 16 16 16 16 16 15 16 22 26 28 29 30 30 29 27 25 25 25 24 24 24 23 22 22 21 21 20 20 20 20 20 20 20
18 17 17 17 16 16 16 16 16 16 16 16 16 16 16 16 17 17 18 18 18 19 19 20 21 23 24 19 19 18 18 18 17 17 16 16 16 16 16 16 16 16 18 24 27 28 29 30 30 30 29 26 25 25 25 24 23 22 22 21 20 20 20 20 20 20 20 21 20
17 17 16 16 16 16 16 16 16 16 16 16 16 16 16 17 17 18 18 18 19 19 20 20 22 21 20 19 19 18 18 18 17 17 16 16 16 16 16 16 16 17 21 26 28 29 29 29 30 30 29 28 26 25 24 23 23 22 21 20 20 20 20 20 20 20 20 20 20
17 16 16 16 16 15 15 15 15 15 15 15 16 16 16 17 17 18 18 19 19 20 20 21 21 20 19 19 19 18 18 17 17 16 16 16 16 16 17 17 17 19 23 27 28 28 29 29 29 29 29 29 27 25 24 23 22 21 21 20 20 20 20 20 20 20 20 20 20
16 16 16 15 15 15 15 15 15 15 15 15 16 16 16 17 17 18 18 19 19 20 21 22 20 20 19 19 18 18 17 17 16 16 16 16 17 18 18 19 17 19 22 27 28 29 29 29 29 29 29 29 28 26 24 22 21 21 20 20 20 20 20 20 20 20 20 20 19
16 16 16 15 15 15 15 15 15 15 15 16 16 16 16 17 17 18 18 19 20 22 23 21 20 19 18 18 18 17 17 16 16 16 17 17 18 18 17 17 16 18 23 27 28 28 29 29 29 29 29 29 28 25 24 22 21 20 20 20 20 20 20 20 20 20 19 19 18
16 16 15 15 15 15 15 15 15 15 15 16 16 16 16 17 17 18 19 20 21 21 20 20 19 18 18 18 17 17 16 16 17 17 18 18 17 16 16 17 16 19 23 27 28 28 29 29 29 29 29 29 28 26 24 22 21 20 20 20 20 20 20 20 20 19 19 19 18
15 15 15 15 15 15 15 15 15 15 15 16 16 16 16 17 17 18 19 20 21 20 19 19 19 18 18 17 17 16 16 17 18 18 18 18 17 16 16 18 15 19 24 27 28 28 29 29 28 29 29 29 28 25 24 22 21 20 20 20 20 20 20 20 19 19 19 18 18
15 15 15 15 15 15 15 15 15 15 15 16 16 16 16 17 17 17 19 20 21 20 20 19 19 18 18 17 16 16 17 19 18 17 16 16 16 17 17 16 14 18 24 27 28 28 28 28 28 28 29 29 26 25 23 21 21 20 20 20 20 20 20 20 19 19 18 18 18
15 15 15 15 15 15 15 15 15 15 15 16 16 16 16 17 17 17 19 22 22 20 19 18 18 17 17 17 16 16 17 17 16 16 16 17 17 17 16 16 15 19 25 27 28 28 28 28 28 28 28 28 25 24 22 21 21 20 20 20 20 20 19 19 19 18 18 17 17
15 15 15 14 14 14 15 15 15 15 15 16 16 16 16 17 17 17 19 22 21 20 18 17 17 16 16 16 16 16 17 16 16 16 17 19 18 16 15 15 15 20 25 27 27 27 28 28 28 28 28 26 24 23 22 21 21 20 20 20 20 20 19 19 18 18 17 17 17
15 15 14 14 14 15 15 15 15 15 15 16 16 16 16 17 17 17 19 21 19 18 18 17 17 16 16 16 16 17 17 17 17 17 17 19 17 16 15 16 16 19 23 26 27 27 27 27 28 28 27 25 23 22 22 21 20 20 20 20 19 19 19 18 18 18 18 18 20
15 15 15 14 15 15 15 15 15 15 15 16 16 16 16 17 17 17 19 22 19 18 17 17 16 16 16 17 18 18 18 17 17 17 17 16 15 16 17 18 17 19 21 25 26 27 27 27 28 28 27 25 23 22 21 21 20 20 20 20 19 19 18 18 18 19 21 23 26
15 15 15 15 15 15 15 15 15 16 16 16 16 16 16 17 17 18 20 21 19 18 17 16 16 16 16 19 20 19 17 16 16 16 16 15 16 18 20 20 18 18 20 24 26 27 27 27 28 28 27 25 23 22 21 21 20 20 19 19 18 18 18 19 20 23 25 27 29
15 15 15 15 15 15 15 15 16 16 16 16 16 16 17 18 19 20 20 19 17 17 17 16 16 16 18 21 20 17 16 15 14 15 16 16 17 20 22 20 17 16 18 22 25 27 27 27 28 28 27 25 23 22 21 20 20 19 19 18 18 18 19 21 25 27 28 27 27
15 15 15 15 15 15 16 16 16 16 16 16 16 17 19 20 19 19 18 16 16 16 16 16 16 16 17 20 18 16 15 15 15 15 16 17 18 19 20 17 15 14 16 20 24 26 27 27 27 27 27 25 23 22 21 20 19 18 18 17 18 19 22 25 27 27 25 23 21